M3YFM-13 Weather Reports


time (UTC)temp
C
wind
direction
speed
KPH
gust
KPH
rain 1hr
cm
rain 24hr
cm
rain mn
cm
humidity
%
barometer
mb
20260506010914 10 97 8.0 14.5 0.00 0.00 0.00 72
20260506010414 10 117 4.8 11.3 0.00 0.00 0.00 72
20260506005913 10 150 4.8 9.7 0.00 0.00 0.00 72
20260506005413 10 149 6.4 17.7 0.00 0.00 0.00 72
20260506004912 10 120 4.8 11.3 0.00 0.00 0.00 72
20260506004412 10 110 8.0 19.3 0.00 0.00 0.00 72
20260506003912 10 118 6.4 12.9 0.00 0.00 0.00 72
20260506003412 10 93 3.2 14.5 0.00 0.00 0.00 72
20260506002911 10 152 6.4 14.5 0.00 0.00 0.00 72
20260506002411 10 115 4.8 11.3 0.00 0.00 0.00 71
20260506001911 10 152 6.4 14.5 0.00 0.00 0.00 71
20260506001410 10 174 6.4 14.5 0.00 0.00 0.00 71
20260506000910 11 146 6.4 16.1 0.00 0.00 0.00 70
20260506000410 11 110 6.4 14.5 0.00 0.00 0.00 70
20260505235910 10 150 8.0 17.7 0.00 0.00 0.00 70
20260505235409 10 138 6.4 16.1 0.00 0.00 0.00 70
20260505234909 11 118 4.8 17.7 0.00 0.00 0.00 69
20260505234407 11 131 8.0 19.3 0.00 0.00 0.00 70
20260505233906 11 124 4.8 12.9 0.00 0.00 0.00 70
20260505233406 11 108 6.4 16.1 0.00 0.00 0.00 70
20260505232906 11 83 4.8 16.1 0.00 0.00 0.00 70
20260505232405 11 134 8.0 17.7 0.00 0.00 0.00 69
20260505231905 11 188 6.4 14.5 0.00 0.00 0.00 69
20260505231405 11 91 4.8 14.5 0.00 0.00 0.00 69
20260505230904 11 127 4.8 12.9 0.00 0.00 0.00 68
20260505230404 11 146 6.4 14.5 0.00 0.00 0.00 68
20260505225904 11 142 6.4 17.7 0.00 0.00 0.00 68
20260505225403 11 148 3.2 11.3 0.00 0.00 0.00 68
20260505224903 11 153 3.2 11.3 0.00 0.00 0.00 67
20260505224403 11 35 1.6 9.7 0.00 0.00 0.00 67
20260505223902 11 129 3.2 9.7 0.00 0.00 0.00 66
20260505223402 11 68 6.4 14.5 0.00 0.00 0.00 66
20260505222902 11 145 6.4 14.5 0.00 0.00 0.00 66
20260505222402 11 146 4.8 14.5 0.00 0.00 0.00 66
20260505221901 12 97 6.4 14.5 0.00 0.00 0.00 65
20260505221401 11 86 4.8 12.9 0.00 0.00 0.00 64
20260505220901 11 89 8.0 16.1 0.00 0.00 0.00 64
20260505220401 11 135 3.2 8.0 0.00 0.00 0.00 64
20260505215900 12 44 1.6 8.0 0.00 0.00 0.00 63
20260505215359 12 52 3.2 8.0 0.00 0.00 0.00 63
20260505214859 12 41 1.6 6.4 0.00 0.00 0.00 63
20260505214359 12 103 0.0 3.2 0.00 0.00 0.00 62
20260505213859 12 52 1.6 4.8 0.00 0.00 0.00 62
20260505213358 12 89 1.6 6.4 0.00 0.00 0.00 62
20260505212858 12 56 1.6 8.0 0.00 0.00 0.00 61
20260505212358 12 46 1.6 9.7 0.00 0.00 0.00 61
20260505211857 12 7 1.6 6.4 0.00 0.00 0.00 60
20260505211357 12 55 1.6 8.0 0.00 0.00 0.00 60
20260505210857 12 46 1.6 6.4 0.00 0.00 0.00 59
20260505210357 12 15 1.6 6.4 0.00 0.00 0.00 59
20260505205856 12 124 1.6 8.0 0.00 0.00 0.00 58
20260505205356 12 38 3.2 11.3 0.00 0.00 0.00 58
20260505204856 12 28 1.6 9.7 0.00 0.00 0.00 58
20260505204356 12 76 1.6 6.4 0.00 0.00 0.00 58
20260505203855 12 55 3.2 9.7 0.00 0.00 0.00 57
20260505203355 12 75 1.6 6.4 0.00 0.00 0.00 57
20260505202855 12 23 1.6 8.0 0.00 0.00 0.00 57
20260505201854 13 63 1.6 8.0 0.00 0.00 0.00 57
20260505201354 13 62 4.8 9.7 0.00 0.00 0.00 56
20260505200854 13 49 3.2 9.7 0.00 0.00 0.00 56
20260505200353 13 82 3.2 9.7 0.00 0.00 0.00 56
20260505195853 13 84 1.6 6.4 0.00 0.00 0.00 55
20260505195353 13 75 1.6 8.0 0.00 0.00 0.00 54
20260505194852 13 65 1.6 9.7 0.00 0.00 0.00 54
20260505194352 13 68 1.6 4.8 0.00 0.00 0.00 54
20260505193852 13 49 1.6 11.3 0.00 0.00 0.00 53
20260505193352 13 59 1.6 6.4 0.00 0.00 0.00 54
20260505192851 13 52 1.6 8.0 0.00 0.00 0.00 54
20260505192351 13 59 3.2 8.0 0.00 0.00 0.00 54
20260505191851 13 30 3.2 8.0 0.00 0.00 0.00 53
20260505191350 13 30 3.2 8.0 0.00 0.00 0.00 52
20260505190850 13 75 3.2 9.7 0.00 0.00 0.00 51
20260505190350 13 94 4.8 12.9 0.00 0.00 0.00 50
20260505185849 13 103 3.2 11.3 0.00 0.00 0.00 50
20260505185349 14 142 3.2 9.7 0.00 0.00 0.00 50
20260505184849 14 93 6.4 14.5 0.00 0.00 0.00 50
20260505184349 14 73 6.4 16.1 0.00 0.00 0.00 50
20260505183348 14 117 4.8 11.3 0.00 0.00 0.00 50
20260505182848 14 60 6.4 16.1 0.00 0.00 0.00 49
20260505181847 14 113 3.2 11.3 0.00 0.00 0.00 48
20260505181347 15 118 3.2 9.7 0.00 0.00 0.00 48
20260505180847 15 108 3.2 9.7 0.00 0.00 0.00 48
20260505180346 15 8 3.2 9.7 0.00 0.00 0.00 48
20260505175846 15 62 3.2 8.0 0.00 0.00 0.00 48
20260505175346 15 90 3.2 9.7 0.00 0.00 0.00 49
20260505174846 15 84 4.8 9.7 0.00 0.00 0.00 49
20260505174345 15 107 4.8 12.9 0.00 0.00 0.00 48
20260505173845 15 21 3.2 9.7 0.00 0.00 0.00 47
20260505173345 15 18 3.2 11.3 0.00 0.00 0.00 47
20260505172844 15 21 3.2 9.7 0.00 0.00 0.00 46
20260505172344 15 70 3.2 9.7 0.00 0.00 0.00 46
20260505171844 15 80 3.2 11.3 0.00 0.00 0.00 46
20260505171344 15 23 6.4 12.9 0.00 0.00 0.00 46
20260505170843 15 34 4.8 11.3 0.00 0.00 0.00 45
20260505170343 15 30 4.8 12.9 0.00 0.00 0.00 46
20260505165843 15 357 4.8 16.1 0.00 0.00 0.00 46
20260505165342 15 89 3.2 11.3 0.00 0.00 0.00 46
20260505164842 15 48 6.4 14.5 0.00 0.00 0.00 46
20260505163842 15 69 4.8 12.9 0.00 0.00 0.00 46
20260505163341 15 100 3.2 9.7 0.00 0.00 0.00 46
20260505162841 15 23 4.8 9.7 0.00 0.00 0.00 46
20260505162340 15 38 4.8 14.5 0.00 0.00 0.00 46
20260505161340 15 89 4.8 12.9 0.00 0.00 0.00 47
20260505160839 15 52 6.4 16.1 0.00 0.00 0.00 46
20260505160339 15 68 4.8 14.5 0.00 0.00 0.00 46
20260505153337 15 76 3.2 12.9 0.00 0.00 0.00 46
20260505152837 15 41 3.2 9.7 0.00 0.00 0.00 46
20260505152337 15 72 4.8 12.9 0.00 0.00 0.00 46
20260505151836 15 96 4.8 11.3 0.00 0.00 0.00 46
20260505151336 15 103 3.2 11.3 0.00 0.00 0.00 47
20260505150836 15 83 4.8 14.5 0.00 0.00 0.00 46
20260505150335 16 110 3.2 9.7 0.00 0.00 0.00 45
20260505140332 16 93 4.8 12.9 0.00 0.00 0.00 45
20260505124828 17 58 3.2 8.0 0.00 0.00 0.00 45
20260505123827 17 90 4.8 11.3 0.00 0.00 0.00 44
20260505123327 17 158 3.2 12.9 0.00 0.00 0.00 44
20260505122827 17 21 6.4 16.1 0.00 0.00 0.00 42
20260505122326 17 69 3.2 9.7 0.00 0.00 0.00 44
20260505121826 17 108 4.8 12.9 0.00 0.00 0.00 42
20260505121326 17 31 4.8 14.5 0.00 0.00 0.00 43
20260505120825 17 63 4.8 14.5 0.00 0.00 0.00 44
20260505120325 17 34 4.8 14.5 0.00 0.00 0.00 44
20260505115825 16 25 4.8 9.7 0.00 0.00 0.00 46
20260505115325 16 70 4.8 14.5 0.00 0.00 0.00 46
20260505114824 16 44 3.2 9.7 0.00 0.00 0.00 47
20260505114324 16 94 4.8 11.3 0.00 0.00 0.00 48
20260505113824 16 80 1.6 11.3 0.00 0.00 0.00 48
20260505113323 16 83 4.8 12.9 0.00 0.00 0.00 48
20260505112823 16 13 4.8 11.3 0.00 0.00 0.00 48
20260505112323 15 90 6.4 19.3 0.00 0.00 0.00 50
20260505111823 15 118 6.4 16.1 0.00 0.00 0.00 49
20260505111322 15 46 4.8 12.9 0.00 0.00 0.00 48
20260505110822 15 353 3.2 9.7 0.00 0.00 0.00 50
20260505110322 14 69 4.8 12.9 0.00 0.00 0.00 49
20260505101818 14 114 4.8 14.5 0.00 0.00 0.00 50
20260505100817 15 7 8.0 16.1 0.00 0.00 0.00 51
20260505095817 15 41 6.4 14.5 0.00 0.00 0.00 51
20260505094816 15 80 4.8 12.9 0.00 0.00 0.00 53
20260505093815 14 66 4.8 14.5 0.00 0.00 0.00 53
20260505093315 14 87 6.4 17.7 0.00 0.00 0.00 51
20260505092815 14 42 4.8 12.9 0.00 0.00 0.00 53
20260505092315 14 86 6.4 17.7 0.00 0.00 0.00 53
20260505091814 14 87 9.7 17.7 0.00 0.00 0.00 49
20260505091314 15 11 4.8 11.3 0.00 0.00 0.00 52
20260505090313 15 18 6.4 12.9 0.00 0.00 0.00 53
20260505085813 14 49 4.8 11.3 0.00 0.00 0.00 55
20260505085313 13 34 4.8 16.1 0.00 0.00 0.00 54
20260505084813 13 32 4.8 14.5 0.00 0.00 0.00 56
20260505084312 13 94 4.8 14.5 0.00 0.00 0.00 59
20260505083812 13 59 4.8 14.5 0.00 0.00 0.00 60
20260505083312 13 28 4.8 16.1 0.00 0.00 0.00 61
20260505082811 12 60 6.4 16.1 0.00 0.00 0.00 63
20260505082311 12 6 6.4 17.7 0.00 0.00 0.00 63
20260505081811 12 60 3.2 12.9 0.00 0.00 0.00 66
20260505081311 12 82 4.8 12.9 0.00 0.00 0.00 66
20260505080810 12 83 4.8 16.1 0.00 0.00 0.00 67
20260505080310 11 108 3.2 8.0 0.00 0.00 0.00 68
20260505075309 11 52 3.2 9.7 0.00 0.00 0.00 72
20260505074809 11 93 3.2 9.7 0.00 0.00 0.00 73
20260505074309 11 42 3.2 9.7 0.00 0.00 0.00 75
20260505073809 10 42 4.8 12.9 0.00 0.00 0.00 76
20260505073308 11 42 3.2 12.9 0.00 0.00 0.00 77
20260505072808 10 38 1.6 6.4 0.00 0.00 0.00 79
20260505072308 10 44 1.6 8.0 0.00 0.00 0.00 79
20260505071808 10 41 0.0 1.6 0.00 0.00 0.00 80
20260505071307 10 31 0.0 6.4 0.00 0.00 0.00 81
20260505070807 9 68 1.6 8.0 0.00 0.00 0.00 81
20260505070307 10 107 0.0 4.8 0.00 0.00 0.00 82
20260505065806 9 77 1.6 6.4 0.00 0.00 0.00 83
20260505065306 9 24 0.0 4.8 0.00 0.00 0.00 84
20260505064806 9 103 1.6 9.7 0.00 0.00 0.00 85
20260505064306 8 77 1.6 6.4 0.00 0.00 0.00 86
20260505063805 8 76 1.6 6.4 0.00 0.00 0.00 87
20260505063305 9 98 1.6 6.4 0.00 0.00 0.00 88
20260505062805 8 98 1.6 8.0 0.00 0.00 0.00 90
20260505062304 8 141 1.6 8.0 0.00 0.00 0.00 91
20260505061804 8 122 0.0 4.8 0.00 0.00 0.00 92
20260505061304 8 0 0.0 0.0 0.00 0.00 0.00 92
20260505060804 7 0 0.0 0.0 0.00 0.00 0.00 92
20260505060303 7 7 0.0 1.6 0.00 0.00 0.00 92
20260505055803 7 0 0.0 0.0 0.00 0.00 0.00 92
20260505055303 7 0 0.0 0.0 0.00 0.00 0.00 92
20260505054801 7 0 0.0 0.0 0.00 0.00 0.00 91
20260505054301 7 21 0.0 4.8 0.00 0.00 0.00 92
20260505053801 7 32 0.0 1.6 0.00 0.00 0.00 92
20260505053300 7 0 0.0 0.0 0.00 0.00 0.00 91
20260505052800 6 0 0.0 0.0 0.00 0.00 0.00 92
20260505052300 7 0 0.0 0.0 0.00 0.00 0.00 92
20260505051800 7 0 0.0 0.0 0.00 0.00 0.00 91
20260505051259 7 0 0.0 0.0 0.00 0.00 0.00 91
20260505050758 7 0 0.0 0.0 0.00 0.00 0.00 91
20260505050258 7 0 0.0 0.0 0.00 0.00 0.00 91
20260505041756 7 0 0.0 0.0 0.00 0.00 0.00 91
20260505041255 7 0 0.0 0.0 0.00 0.00 0.00 91
20260505040750 7 0 0.0 0.0 0.00 0.00 0.00 91
20260505040250 7 0 0.0 0.0 0.00 0.00 0.00 90
20260505035750 7 0 0.0 0.0 0.00 0.00 0.00 90
20260505035249 7 0 0.0 0.0 0.00 0.00 0.00 90
20260505034749 7 0 0.0 0.0 0.00 0.00 0.00 90
20260505034249 7 0 0.0 0.0 0.00 0.00 0.00 90
20260505033748 7 0 0.0 0.0 0.00 0.00 0.00 90
20260505033247 7 0 0.0 0.0 0.00 0.00 0.00 90
20260505032747 7 0 0.0 0.0 0.00 0.00 0.00 90
20260505031746 7 18 0.0 1.6 0.00 0.00 0.00 90
20260505031246 7 0 0.0 0.0 0.00 0.00 0.00 90
20260505030745 7 38 0.0 3.2 0.00 0.00 0.00 90
20260505030245 7 10 0.0 1.6 0.00 0.00 0.00 90
20260505025745 7 87 0.0 1.6 0.00 0.00 0.00 89
20260505025245 7 0 0.0 0.0 0.00 0.00 0.00 89
20260505024744 7 0 0.0 0.0 0.00 0.00 0.00 89
20260505024244 7 0 0.0 0.0 0.00 0.00 0.00 89
20260505023744 7 0 0.0 0.0 0.00 0.00 0.00 89
20260505023243 7 0 0.0 0.0 0.00 0.00 0.00 89
20260505022742 8 0 0.0 0.0 0.00 0.00 0.00 89
20260505022242 7 0 0.0 0.0 0.00 0.00 0.00 89
20260505021742 8 0 0.0 0.0 0.00 0.00 0.00 89
20260505021241 8 0 0.0 0.0 0.00 0.00 0.00 88
20260505020741 7 0 0.0 0.0 0.00 0.00 0.00 88
20260505020241 8 0 0.0 0.0 0.00 0.00 0.00 88
20260505015741 8 0 0.0 0.0 0.00 0.00 0.00 88
20260505015240 8 0 0.0 0.0 0.00 0.00 0.00 88
20260505014740 8 0 0.0 0.0 0.00 0.00 0.00 88
20260505014240 8 0 0.0 0.0 0.00 0.00 0.00 88
20260505013739 8 0 0.0 0.0 0.00 0.00 0.00 88
20260505013239 8 0 0.0 0.0 0.00 0.00 0.00 87
20260505012739 8 0 0.0 0.0 0.00 0.00 0.00 87
20260505012239 9 0 0.0 0.0 0.00 0.00 0.00 87
20260505011738 9 0 0.0 0.0 0.00 0.00 0.00 87